Location: Brede
(50.9167°N, 0.6000°E)
Time: 02:01:30
(UTC+00:00)

CZ-4B R/B - Pass Details

Date: 08 August 2020
Orbit: 702 x 803 km, 98.9° (Epoch: 27 September)

Event Time Altitude Azimuth Distance (km) Brightness Sun altitude
Rises 01:54:15 0° 18° (NNE) 3,130 8.2 -18.8°
Reaches altitude 10° 01:56:35 10° 23° (NNE) 2,196 7.1 -18.6°
Maximum altitude 02:01:17 54° 101° (E) 854 3.8 -18.2°
Enters shadow 02:03:50 25° 169° (S) 1,391 4.4 -18.0°
